Latest Weather Observations for Richmond

IDN60901

Issued at 7:45 am EST Tuesday 2 September 2014 (issued every 10 minutes, with the page automatically refreshed every 10 minutes)

About weather observations | Map of Sydney area stations | Latest observations for Sydney area | Other Formats
Station Details ID: 067105 Name: RICHMOND RAAF Lat: -33.60 Lon: 150.78 Height: 19.0 m
Data from the previous 72 hours. | See also: Recent months at Richmond
Date/Time
EST
Tmp

°C
App
Tmp
°C
Dew
Point
°C
Rel
Hum
%
Delta-T

°C
Wind Press
QNH
hPa
Press
MSL
hPa
Rain
since
9 am
mm
Dir
 
Spd
km/h
Gust
km/h
Spd
kts
Gust
kts
02/07:30am 14.9 12.2 7.2 60 3.8 WNW 11 17 6 9 1009.7 - 0.0
02/07:00am 14.2 11.9 7.5 64 3.3 N 9 13 5 7 1009.6 1009.6 0.0
02/06:30am 13.9 11.5 7.2 64 3.3 N 9 13 5 7 1009.6 - 0.0
02/06:00am 14.3 13.4 7.6 64 3.3 WNW 2 9 1 5 1009.4 1009.4 0.0
02/05:30am 14.0 11.0 7.8 66 3.1 W 13 15 7 8 1009.3 - 0.0
02/05:00am 14.8 11.4 7.6 62 3.6 WSW 15 17 8 9 1009.1 1009.1 0.0
02/04:30am 13.8 11.6 8.0 68 2.9 SSW 9 11 5 6 1008.9 - 0.0
02/04:00am 12.6 11.3 9.1 79 1.8 W 6 7 3 4 1008.6 1008.6 0.0
02/03:30am 13.2 12.2 8.9 75 2.2 W 4 13 2 7 1008.5 - 0.0
02/03:00am 13.4 11.4 8.5 72 2.5 SW 9 13 5 7 1008.8 1008.8 0.0
02/02:30am 13.3 11.3 8.8 74 2.3 W 9 13 5 7 1008.8 - 0.0
02/02:00am 14.7 12.4 7.5 62 3.6 NNE 9 13 5 7 1008.6 1008.6 0.0
02/01:30am 15.0 12.8 7.8 62 3.6 NNE 9 9 5 5 1008.9 - 0.0
02/01:00am 14.8 12.9 7.6 62 3.6 NE 7 9 4 5 1009.3 1009.3 0.0
02/12:30am 15.0 13.2 7.8 62 3.6 NNE 7 9 4 5 1009.7 - 0.0
02/12:00am 15.7 13.9 7.2 57 4.2 NNE 6 7 3 4 1010.1 1010.1 0.0
 
Date/Time
EST
Tmp

°C
App
Tmp
°C
Dew
Point
°C
Rel
Hum
%
Delta-T

°C
Wind Press
QNH
hPa
Press
MSL
hPa
Rain
since
9 am
mm
Dir
 
Spd
km/h
Gust
km/h
Spd
kts
Gust
kts
01/11:30pm 16.1 13.7 7.1 55 4.5 N 9 11 5 6 1010.5 - 0.0
01/11:00pm 15.6 13.7 7.6 59 4.0 NNW 7 11 4 6 1010.8 1010.8 0.0
01/10:30pm 15.2 13.9 7.7 61 3.7 N 4 9 2 5 1011.0 - 0.0
01/10:00pm 15.9 14.0 7.4 57 4.2 N 7 11 4 6 1011.0 1011.0 0.0
01/09:30pm 16.6 14.1 6.7 52 4.9 NNW 9 9 5 5 1011.3 - 0.0
01/09:00pm 18.4 16.1 5.6 43 6.3 N 7 9 4 5 1011.5 1011.5 0.0
01/08:30pm 17.6 15.0 6.2 47 5.6 N 9 13 5 7 1011.8 - 0.0
01/08:00pm 17.4 14.1 6.6 49 5.3 NNW 13 15 7 8 1012.0 1012.0 0.0
01/07:30pm 17.2 14.1 7.3 52 5.0 WNW 13 19 7 10 1011.9 - 0.0
01/07:00pm 18.3 15.9 7.1 48 5.6 NW 9 13 5 7 1011.4 1011.4 0.0
01/06:30pm 18.5 15.9 7.6 49 5.5 WNW 11 13 6 7 1011.2 - 0.0
01/06:00pm 19.9 16.9 5.9 40 7.0 NW 11 15 6 8 1010.8 1010.8 0.0
01/05:30pm 20.5 17.3 6.8 41 6.9 NNW 13 15 7 8 1010.3 - 0.0
01/05:00pm 21.4 21.0 9.6 47 6.3 W 2 11 1 6 1010.4 1010.4 0.0
01/04:30pm 22.5 21.9 7.5 38 7.8 CALM 0 6 0 3 1010.3 - 0.0
01/04:00pm 23.2 21.3 6.5 34 8.6 SSE 6 9 3 5 1010.3 1010.3 0.0
01/03:30pm 23.7 23.0 8.5 38 8.1 NNE 2 7 1 4 1010.3 - 0.0
01/03:00pm 23.6 21.8 7.3 35 8.5 E 6 11 3 6 1010.5 1010.5 0.0
01/02:30pm 23.9 21.0 8.3 37 8.3 E 13 19 7 10 1010.6 - 0.0
01/02:00pm 22.7 19.7 7.7 38 7.8 E 13 19 7 10 1011.2 1011.2 0.0
01/01:30pm 23.0 20.9 8.3 39 7.8 NE 9 17 5 9 1011.8 - 0.0
01/01:00pm 22.3 19.8 8.1 40 7.5 NE 11 20 6 11 1012.4 1012.4 0.0
01/12:30pm 21.5 19.4 8.4 43 6.9 NNE 9 15 5 8 1013.1 - 0.0
01/12:00pm 22.1 19.3 8.6 42 7.1 NNE 13 17 7 9 1013.7 1013.7 0.0
01/11:30am 20.8 18.5 9.1 47 6.2 N 11 13 6 7 1014.2 - 0.0
01/11:00am 18.9 17.6 11.2 61 4.2 NE 9 13 5 7 1014.7 1014.7 0.0
01/10:30am 16.9 16.0 10.7 67 3.3 NE 6 13 3 7 1015.4 - 0.0
01/10:00am 14.4 13.5 10.8 79 1.9 ESE 6 7 3 4 1016.3 1016.3 0.0
01/09:30am 13.5 13.7 10.7 83 1.5 CALM 0 0 0 0 1016.8 - 0.0
01/09:09am 11.4 11.5 10.1 92 0.7 CALM 0 0 0 0 1017.2 - 0.0
01/09:00am 11.3 11.1 10.4 94 0.5 WSW 2 6 1 3 1017.3 1017.3 0.0
01/08:48am 10.6 10.7 10.0 96 0.3 CALM 0 0 0 0 1017.3 - 0.0
01/08:31am 9.6 8.7 9.3 98 0.1 SSW 4 7 2 4 1017.4 - 0.0
01/08:30am 9.7 8.8 9.4 98 0.1 SSW 4 7 2 4 1017.5 - 0.0
01/08:00am 8.5 8.1 8.2 98 0.1 CALM 0 0 0 0 1017.6 1017.6 0.0
01/07:30am 7.6 6.6 7.3 98 0.1 SSW 2 6 1 3 1017.3 - 0.0
01/07:13am 7.2 5.3 6.9 98 0.1 SSW 6 7 3 4 1017.1 - 0.0
01/07:00am 7.0 6.2 6.7 98 0.1 CALM 0 0 0 0 1017.1 1017.1 0.0
01/06:55am 6.9 6.1 6.6 98 0.1 CALM 0 2 0 1 1017.1 - 0.0
01/06:30am 6.4 4.2 6.1 98 0.1 NNE 7 7 4 4 1017.0 - 0.0
01/06:02am 6.9 5.4 6.6 98 0.1 NNE 4 7 2 4 1016.9 - 0.0
01/06:01am 6.9 5.7 6.6 98 0.1 NNE 2 7 1 4 1016.8 - 0.0
01/06:00am 6.9 5.7 6.6 98 0.1 NNE 2 7 1 4 1016.8 1016.8 0.0
01/05:30am 6.4 5.5 6.1 98 0.1 CALM 0 0 0 0 1016.7 - 0.0
01/05:00am 6.4 5.1 6.1 98 0.1 N 2 6 1 3 1016.6 1016.6 0.0
01/04:30am 6.8 6.0 6.5 98 0.1 CALM 0 0 0 0 1016.4 - 0.0
01/04:14am 6.8 6.0 6.5 98 0.1 CALM 0 0 0 0 1016.2 - 0.0
01/04:00am 6.7 5.9 6.4 98 0.1 CALM 0 0 0 0 1016.3 1016.3 0.0
01/03:53am 7.3 6.6 7.0 98 0.1 CALM 0 0 0 0 1016.3 - 0.0
01/03:30am 7.5 6.9 7.2 98 0.1 CALM 0 0 0 0 1016.2 - 0.0
01/03:00am 7.9 6.6 7.6 98 0.1 N 4 6 2 3 1016.3 1016.3 0.0
01/02:30am 8.4 8.0 8.1 98 0.1 CALM 0 0 0 0 1016.6 - 0.0
01/02:00am 8.5 8.1 8.1 97 0.2 CALM 0 0 0 0 1017.0 1017.0 0.0
01/01:42am 9.0 8.7 8.7 98 0.1 CALM 0 0 0 0 1017.1 - 0.0
01/01:34am 9.0 8.7 8.7 98 0.1 CALM 0 0 0 0 1017.2 - 0.0
01/01:32am 9.0 8.7 8.5 97 0.2 CALM 0 0 0 0 1017.3 - 0.0
01/01:30am 9.0 8.7 8.5 97 0.2 CALM 0 0 0 0 1017.3 - 0.0
01/01:00am 9.2 8.9 8.6 96 0.3 CALM 0 0 0 0 1017.5 1017.5 0.0
01/12:51am 9.4 9.1 8.8 96 0.3 CALM 0 0 0 0 1017.6 - 0.0
01/12:50am 9.3 9.0 8.7 96 0.3 CALM 0 0 0 0 1017.6 - 0.0
01/12:48am 9.3 9.0 8.7 96 0.3 CALM 0 0 0 0 1017.6 - 0.0
01/12:41am 9.4 9.1 8.8 96 0.3 CALM 0 0 0 0 1017.6 - 0.0
01/12:30am 9.6 9.3 8.7 94 0.4 CALM 0 0 0 0 1017.7 - 0.0
01/12:00am 10.5 10.5 9.7 95 0.4 CALM 0 0 0 0 1017.9 1017.9 0.0
 
Date/Time
EST
Tmp

°C
App
Tmp
°C
Dew
Point
°C
Rel
Hum
%
Delta-T

°C
Wind Press
QNH
hPa
Press
MSL
hPa
Rain
since
9 am
mm
Dir
 
Spd
km/h
Gust
km/h
Spd
kts
Gust
kts
31/11:30pm 10.9 10.9 9.8 93 0.6 CALM 0 0 0 0 1018.1 - 0.0
31/11:00pm 11.2 10.5 9.9 92 0.7 WSW 4 6 2 3 1018.3 1018.3 0.0
31/10:30pm 11.0 9.7 9.9 93 0.6 WSW 7 7 4 4 1018.3 - 0.0
31/10:00pm 11.2 9.9 9.9 92 0.7 W 7 9 4 5 1018.4 1018.4 0.0
31/09:30pm 12.0 12.1 10.2 89 0.9 CALM 0 0 0 0 1018.3 - 0.0
31/09:00pm 13.2 12.5 11.4 89 1.0 SE 6 7 3 4 1018.2 1018.2 0.0
31/08:30pm 13.3 12.2 10.8 85 1.3 SSW 7 9 4 5 1018.2 - 0.0
31/08:00pm 13.6 12.9 11.5 87 1.1 SSW 6 9 3 5 1018.3 1018.3 0.0
31/07:30pm 14.3 14.6 10.9 80 1.8 CALM 0 0 0 0 1017.9 - 0.0
31/07:00pm 15.6 14.1 11.8 78 2.1 E 11 13 6 7 1017.3 1017.3 0.0
31/06:30pm 16.5 14.2 11.9 74 2.5 ENE 15 19 8 10 1016.9 - 0.0
31/06:00pm 17.3 14.8 11.1 67 3.3 E 15 20 8 11 1016.6 1016.6 0.0
31/05:30pm 19.1 17.2 9.0 52 5.3 N 9 9 5 5 1016.4 - 0.0
31/05:00pm 20.1 18.3 9.4 50 5.7 NNE 9 13 5 7 1016.3 1016.3 0.0
31/04:30pm 21.0 18.9 8.3 44 6.6 ENE 9 13 5 7 1016.3 - 0.0
31/04:00pm 21.2 18.8 8.8 45 6.5 N 11 13 6 7 1016.4 1016.4 0.0
31/03:30pm 21.3 19.4 9.2 46 6.4 NE 9 15 5 8 1016.5 - 0.0
31/03:00pm 21.3 20.6 9.9 48 6.1 E 4 11 2 6 1016.6 1016.6 0.0
31/02:30pm 20.8 19.1 8.4 45 6.5 E 7 15 4 8 1016.8 - 0.0
31/02:00pm 21.2 19.4 10.7 51 5.7 E 11 19 6 10 1017.2 1017.2 0.0
31/01:30pm 20.3 18.4 9.2 49 5.9 NE 9 17 5 9 1017.7 - 0.0
31/01:00pm 20.5 19.3 9.4 49 5.9 N 6 11 3 6 1018.2 1018.2 0.0
31/12:30pm 19.5 17.8 8.5 49 5.7 ENE 7 13 4 7 1018.7 - 0.0
31/12:00pm 19.1 17.6 9.3 53 5.2 NW 7 11 4 6 1019.3 1019.3 0.0
31/11:30am 19.1 18.3 9.6 54 5.0 W 4 11 2 6 1019.7 - 0.0
31/11:00am 18.5 17.4 9.8 57 4.6 E 6 9 3 5 1020.2 1020.2 0.0
31/10:30am 17.9 16.2 9.8 59 4.3 WNW 9 15 5 8 1020.7 - 0.0
31/10:00am 17.2 15.4 9.4 60 4.1 W 9 13 5 7 1020.9 1020.9 0.0
31/09:30am 16.3 14.5 9.3 63 3.6 W 9 15 5 8 1021.2 - 0.0
31/09:00am 15.1 13.9 9.7 70 2.8 WSW 6 9 3 5 1021.5 1021.5 0.0
31/08:30am 13.8 12.4 9.5 75 2.2 WSW 7 13 4 7 1021.6 - 0.0
31/08:00am 12.6 12.7 10.0 84 1.3 CALM 0 6 0 3 1021.7 1021.7 0.0
31/07:30am 11.4 10.0 9.7 89 0.9 W 7 9 4 5 1021.5 - 0.0
31/07:00am 10.4 10.4 9.8 96 0.3 CALM 0 0 0 0 1021.3 1021.3 0.0
31/06:30am 9.8 9.7 9.3 97 0.2 CALM 0 0 0 0 1021.1 - 0.0
31/06:00am 9.4 9.2 9.1 98 0.1 CALM 0 0 0 0 1021.0 1021.0 0.0
31/05:30am 8.7 8.2 7.9 95 0.4 CALM 0 0 0 0 1020.8 - 0.0
31/05:00am 8.4 7.8 7.6 95 0.4 CALM 0 0 0 0 1020.6 1020.6 0.0
31/04:30am 8.9 8.5 8.1 95 0.4 CALM 0 0 0 0 1020.7 - 0.0
31/04:00am 9.3 7.5 7.9 91 0.7 WSW 7 9 4 5 1020.6 1020.6 0.0
31/03:30am 10.2 8.2 8.8 91 0.7 W 9 9 5 5 1020.6 - 0.0
31/03:00am 10.4 9.0 8.7 89 0.8 W 6 7 3 4 1020.8 1020.8 0.0
31/02:30am 11.1 10.8 8.8 86 1.1 CALM 0 4 0 2 1020.9 - 0.0
31/02:00am 12.1 10.6 9.3 83 1.4 WSW 7 7 4 4 1021.0 1021.0 0.0
31/01:30am 12.9 11.5 9.7 81 1.6 WSW 7 7 4 4 1021.3 - 0.0
31/01:00am 13.6 12.5 9.8 78 1.9 SW 6 7 3 4 1021.5 1021.5 0.0
31/12:30am 13.6 12.3 9.8 78 2.0 WSW 7 9 4 5 1021.6 - 0.0
31/12:00am 14.0 12.8 9.6 75 2.3 SW 6 9 3 5 1021.8 1021.8 0.0
 
Date/Time
EST
Tmp

°C
App
Tmp
°C
Dew
Point
°C
Rel
Hum
%
Delta-T

°C
Wind Press
QNH
hPa
Press
MSL
hPa
Rain
since
9 am
mm
Dir
 
Spd
km/h
Gust
km/h
Spd
kts
Gust
kts
30/11:30pm 14.0 12.6 9.6 75 2.3 SSW 7 9 4 5 1022.0 - 0.0
30/11:00pm 14.2 12.4 9.6 74 2.4 SSW 9 13 5 7 1022.1 1022.1 0.0
30/10:30pm 14.3 12.9 9.7 74 2.4 S 7 13 4 7 1022.2 - 0.0
30/10:00pm 14.3 12.2 9.9 75 2.3 S 11 15 6 8 1022.1 1022.1 0.0
30/09:30pm 14.5 12.5 10.3 76 2.2 S 11 13 6 7 1022.4 - 0.0
30/09:00pm 14.4 12.9 10.6 78 2.0 S 9 13 5 7 1022.3 1022.3 0.0
30/08:30pm 14.5 13.6 10.7 78 2.0 S 6 9 3 5 1022.3 - 0.0
30/08:00pm 14.7 13.9 10.9 78 2.0 SSW 6 7 3 4 1022.5 1022.5 0.0
30/07:30pm 14.8 15.1 10.8 77 2.1 CALM 0 4 0 2 1022.3 - 0.0
30/07:00pm 15.0 14.5 10.8 76 2.2 SSW 4 6 2 3 1022.2 1022.2 0.0
30/06:30pm 15.3 14.2 10.7 74 2.4 S 7 13 4 7 1022.1 - 0.0
30/06:00pm 15.5 13.3 10.9 74 2.4 S 13 17 7 9 1022.0 1022.0 0.0
30/05:30pm 15.5 14.2 11.1 75 2.4 S 9 13 5 7 1021.9 - 0.0
30/05:00pm 15.5 13.8 11.1 75 2.3 SSW 11 13 6 7 1021.8 1021.8 0.0
30/04:30pm 15.5 12.3 11.1 75 2.4 S 19 28 10 15 1021.8 - 0.0
30/04:00pm 16.7 13.9 10.1 65 3.5 SSW 15 24 8 13 1021.7 1021.7 0.0
30/03:30pm 17.0 14.0 10.8 67 3.3 SSW 17 24 9 13 1021.8 - 0.0
30/03:00pm 16.9 12.8 10.1 64 3.6 SSW 22 32 12 17 1021.9 1021.9 0.0
30/02:30pm 17.7 13.8 10.8 64 3.7 SW 22 32 12 17 1022.0 - 0.0
30/02:00pm 16.2 11.4 10.3 68 3.1 SW 26 32 14 17 1022.4 1022.4 0.0
30/01:30pm 16.2 11.7 10.1 67 3.2 SW 24 33 13 18 1022.6 - 0.0
30/01:00pm 15.8 11.8 10.6 71 2.7 WSW 22 28 12 15 1022.8 1022.8 0.0
30/12:30pm 15.9 12.0 10.7 71 2.8 S 22 30 12 16 1023.1 - 0.0
30/12:00pm 16.4 13.4 10.7 69 3.0 S 17 26 9 14 1023.3 1023.3 0.0
30/11:30am 16.4 11.4 9.6 64 3.5 S 26 35 14 19 1023.5 - 0.0
30/11:00am 16.3 11.9 9.0 62 3.7 S 22 32 12 17 1023.8 1023.8 0.0
30/10:30am 16.5 12.2 9.2 62 3.8 SSW 22 35 12 19 1023.9 - 0.0
30/10:00am 16.0 12.4 8.5 61 3.8 S 17 26 9 14 1023.9 1023.9 0.0
30/09:30am 15.3 11.1 8.3 63 3.5 SSW 20 28 11 15 1024.1 - 0.0
30/09:00am 14.9 10.6 7.9 63 3.5 SSW 20 30 11 16 1024.2 1024.2 0.0
30/08:30am 14.5 9.5 8.0 65 3.2 SSW 24 37 13 20 1024.3 - 0.0
30/08:00am 14.4 9.3 7.5 63 3.4 SSW 24 35 13 19 1024.2 1024.2 0.0

Latest Capital City Observations: Canberra | Sydney | Melbourne | Brisbane | Adelaide | Perth | Hobart | Darwin

Other Formats:

Comma delimited format used in spreadsheet applications
http://www.bom.gov.au/fwo/IDN60901/IDN60901.95753.axf

JavaScript Object Notation format (JSON) in row-major order
http://www.bom.gov.au/fwo/IDN60901/IDN60901.95753.json